| time (UTC) | temp F | wind direction | speed MPH | gust MPH | rain 1hr in | rain 24hr in | rain mn in | humidity % | barometer mb |
| 20260902135805 | 34 | 131 | 0.0 | 0.0 | 0.00 | 0.00 | 0.00 | 92 | 1008.5 |
| 20260902135306 | 34 | 131 | 0.0 | 0.0 | 0.00 | 0.00 | 0.00 | 92 | 1008.4 |
| 20260902134304 | 34 | 131 | 0.0 | 0.0 | 0.00 | 0.00 | 0.00 | 92 | 1008.3 |
| 20260902133804 | 34 | 131 | 0.0 | 0.0 | 0.00 | 0.00 | 0.00 | 92 | 1008.3 |
| 20260902133304 | 34 | 131 | 0.0 | 0.0 | 0.00 | 0.00 | 0.00 | 92 | 1008.3 |
| 20260902132804 | 34 | 131 | 0.0 | 0.0 | 0.00 | 0.00 | 0.00 | 92 | 1008.3 |
| 20260902132306 | 34 | 131 | 0.0 | 0.0 | 0.00 | 0.00 | 0.00 | 92 | 1008.2 |
| 20260902131804 | 34 | 131 | 0.0 | 0.0 | 0.00 | 0.00 | 0.00 | 92 | 1008.1 |
| 20260902131304 | 34 | 131 | 0.0 | 0.0 | 0.00 | 0.00 | 0.00 | 92 | 1008.1 |
| 20260902130804 | 34 | 131 | 0.0 | 2.0 | 0.00 | 0.00 | 0.00 | 91 | 1008.0 |
| 20260902130304 | 34 | 161 | 0.0 | 2.0 | 0.00 | 0.00 | 0.00 | 91 | 1008.0 |
| 20260902125804 | 34 | 158 | 0.0 | 0.0 | 0.00 | 0.00 | 0.00 | 91 | 1007.9 |
| 20260902125305 | 34 | 158 | 0.0 | 0.0 | 0.00 | 0.00 | 0.00 | 91 | 1007.9 |
| 20260902124804 | 34 | 158 | 0.0 | 0.0 | 0.00 | 0.00 | 0.00 | 91 | 1007.8 |
| 20260902123804 | 34 | 158 | 0.0 | 0.0 | 0.00 | 0.00 | 0.00 | 91 | 1007.6 |
| 20260902123304 | 35 | 158 | 0.0 | 0.0 | 0.00 | 0.00 | 0.00 | 91 | 1007.6 |
| 20260902122804 | 35 | 158 | 0.0 | 0.0 | 0.00 | 0.00 | 0.00 | 91 | 1007.5 |
| 20260902122305 | 35 | 158 | 0.0 | 0.0 | 0.00 | 0.00 | 0.00 | 91 | 1007.5 |
| 20260902121804 | 35 | 158 | 0.0 | 0.0 | 0.00 | 0.00 | 0.00 | 91 | 1007.3 |
| 20260902121304 | 35 | 158 | 0.0 | 0.0 | 0.00 | 0.00 | 0.00 | 91 | 1007.3 |
| 20260902120804 | 35 | 158 | 0.0 | 0.0 | 0.00 | 0.00 | 0.00 | 91 | 1007.4 |
| 20260902120304 | 35 | 158 | 0.0 | 0.0 | 0.00 | 0.00 | 0.00 | 90 | 1007.4 |
| 20260902115804 | 35 | 158 | 0.0 | 0.0 | 0.00 | 0.00 | 0.00 | 90 | 1007.4 |
| 20260902115307 | 35 | 158 | 0.0 | 0.0 | 0.00 | 0.00 | 0.00 | 90 | 1007.4 |
| 20260902114804 | 35 | 158 | 0.0 | 0.0 | 0.00 | 0.00 | 0.00 | 90 | 1007.4 |
| 20260902114304 | 35 | 158 | 0.0 | 0.0 | 0.00 | 0.00 | 0.00 | 90 | 1007.5 |
| 20260902113804 | 35 | 158 | 0.0 | 0.0 | 0.00 | 0.00 | 0.00 | 90 | 1007.4 |
| 20260902113304 | 35 | 158 | 0.0 | 0.0 | 0.00 | 0.00 | 0.00 | 90 | 1007.5 |
| 20260902112804 | 35 | 158 | 0.0 | 0.0 | 0.00 | 0.00 | 0.00 | 90 | 1007.5 |
| 20260902112305 | 35 | 158 | 0.0 | 0.0 | 0.00 | 0.00 | 0.00 | 90 | 1007.4 |
| 20260902111804 | 36 | 158 | 0.0 | 0.0 | 0.00 | 0.00 | 0.00 | 90 | 1007.4 |
| 20260902111304 | 36 | 158 | 0.0 | 0.0 | 0.00 | 0.00 | 0.00 | 90 | 1007.3 |
| 20260902110804 | 36 | 158 | 0.0 | 0.0 | 0.00 | 0.00 | 0.00 | 90 | 1007.3 |
| 20260902110304 | 36 | 158 | 0.0 | 0.0 | 0.00 | 0.00 | 0.00 | 90 | 1007.4 |
| 20260902105804 | 36 | 158 | 0.0 | 0.0 | 0.00 | 0.00 | 0.00 | 90 | 1007.4 |
| 20260902105306 | 36 | 158 | 0.0 | 0.0 | 0.00 | 0.00 | 0.00 | 90 | 1007.4 |
| 20260902104804 | 36 | 158 | 0.0 | 0.0 | 0.00 | 0.00 | 0.00 | 90 | 1007.4 |
| 20260902104304 | 36 | 158 | 0.0 | 0.0 | 0.00 | 0.00 | 0.00 | 89 | 1007.3 |
| 20260902103804 | 36 | 158 | 0.0 | 0.0 | 0.00 | 0.00 | 0.00 | 89 | 1007.3 |
| 20260902103304 | 36 | 158 | 0.0 | 0.0 | 0.00 | 0.00 | 0.00 | 89 | 1007.3 |
| 20260902102804 | 36 | 158 | 0.0 | 0.0 | 0.00 | 0.00 | 0.00 | 89 | 1007.3 |
| 20260902102307 | 36 | 158 | 0.0 | 0.0 | 0.00 | 0.00 | 0.00 | 89 | 1007.3 |
| 20260902101804 | 36 | 158 | 0.0 | 0.0 | 0.00 | 0.00 | 0.00 | 89 | 1007.2 |
| 20260902101304 | 37 | 158 | 0.0 | 0.0 | 0.00 | 0.00 | 0.00 | 89 | 1007.2 |
| 20260902100804 | 37 | 158 | 0.0 | 0.0 | 0.00 | 0.00 | 0.00 | 89 | 1007.2 |
| 20260902100304 | 37 | 158 | 0.0 | 0.0 | 0.00 | 0.00 | 0.00 | 89 | 1007.2 |
| 20260902095804 | 37 | 158 | 0.0 | 0.0 | 0.00 | 0.00 | 0.00 | 88 | 1007.2 |
| 20260902095306 | 37 | 158 | 0.0 | 0.0 | 0.00 | 0.00 | 0.00 | 88 | 1007.2 |
| 20260902094804 | 37 | 158 | 0.0 | 0.0 | 0.00 | 0.00 | 0.00 | 88 | 1007.3 |
| 20260902094305 | 37 | 158 | 0.0 | 0.0 | 0.00 | 0.00 | 0.00 | 88 | 1007.3 |
| 20260902093804 | 37 | 158 | 0.0 | 0.0 | 0.00 | 0.00 | 0.00 | 88 | 1007.3 |
| 20260902093305 | 37 | 158 | 0.0 | 0.0 | 0.00 | 0.00 | 0.00 | 88 | 1007.2 |
| 20260902092804 | 37 | 158 | 0.0 | 0.0 | 0.00 | 0.00 | 0.00 | 88 | 1007.3 |
| 20260902092305 | 37 | 158 | 0.0 | 0.0 | 0.00 | 0.00 | 0.00 | 88 | 1007.2 |
| 20260902091804 | 38 | 158 | 0.0 | 0.0 | 0.00 | 0.00 | 0.00 | 88 | 1007.2 |
| 20260902091304 | 38 | 158 | 0.0 | 0.0 | 0.00 | 0.00 | 0.00 | 88 | 1007.2 |
| 20260902090804 | 38 | 158 | 0.0 | 0.0 | 0.00 | 0.00 | 0.00 | 87 | 1007.3 |
| 20260902090304 | 38 | 158 | 0.0 | 0.0 | 0.00 | 0.00 | 0.00 | 87 | 1007.2 |
| 20260902085804 | 38 | 158 | 0.0 | 0.0 | 0.00 | 0.00 | 0.00 | 87 | 1007.2 |
| 20260902085306 | 38 | 158 | 0.0 | 0.0 | 0.00 | 0.00 | 0.00 | 87 | 1007.2 |
| 20260902084804 | 38 | 158 | 0.0 | 0.0 | 0.00 | 0.00 | 0.00 | 87 | 1007.3 |
| 20260902084304 | 38 | 158 | 0.0 | 0.0 | 0.00 | 0.00 | 0.00 | 87 | 1007.3 |
| 20260902083805 | 39 | 158 | 0.0 | 0.0 | 0.00 | 0.00 | 0.00 | 86 | 1007.3 |
| 20260902083304 | 39 | 158 | 0.0 | 0.0 | 0.00 | 0.00 | 0.00 | 86 | 1007.2 |
| 20260902082804 | 39 | 158 | 0.0 | 0.0 | 0.00 | 0.00 | 0.00 | 86 | 1007.2 |
| 20260902082309 | 39 | 158 | 0.0 | 0.0 | 0.00 | 0.00 | 0.00 | 86 | 1007.2 |
| 20260902081804 | 39 | 158 | 0.0 | 0.0 | 0.00 | 0.00 | 0.00 | 86 | 1007.2 |
| 20260902081304 | 39 | 158 | 0.0 | 0.0 | 0.00 | 0.00 | 0.00 | 86 | 1007.1 |
| 20260902080804 | 40 | 158 | 0.0 | 0.0 | 0.00 | 0.00 | 0.00 | 86 | 1007.1 |
| 20260902080305 | 40 | 158 | 0.0 | 0.0 | 0.00 | 0.00 | 0.00 | 85 | 1007.1 |
| 20260902075804 | 40 | 158 | 0.0 | 0.0 | 0.00 | 0.00 | 0.00 | 85 | 1007.1 |
| 20260902075306 | 40 | 158 | 0.0 | 1.0 | 0.00 | 0.00 | 0.00 | 85 | 1007.1 |
| 20260902074805 | 40 | 172 | 1.0 | 2.0 | 0.00 | 0.00 | 0.00 | 85 | 1007.0 |
| 20260902074304 | 41 | 174 | 0.0 | 0.0 | 0.00 | 0.00 | 0.00 | 85 | 1007.0 |
| 20260902073805 | 41 | 174 | 0.0 | 0.0 | 0.00 | 0.00 | 0.00 | 85 | 1007.1 |
| 20260902073304 | 41 | 174 | 0.0 | 0.0 | 0.00 | 0.00 | 0.00 | 84 | 1007.0 |
| 20260902072804 | 42 | 174 | 0.0 | 1.0 | 0.00 | 0.00 | 0.00 | 84 | 1007.0 |
| 20260902072309 | 42 | 154 | 0.0 | 1.0 | 0.00 | 0.00 | 0.00 | 84 | 1007.0 |
| 20260902071804 | 42 | 109 | 0.0 | 0.0 | 0.00 | 0.00 | 0.00 | 84 | 1007.1 |
| 20260902071304 | 42 | 109 | 0.0 | 1.0 | 0.00 | 0.00 | 0.00 | 84 | 1007.0 |
| 20260902070804 | 43 | 188 | 1.0 | 1.0 | 0.00 | 0.00 | 0.00 | 83 | 1007.1 |
| 20260902070304 | 43 | 147 | 0.0 | 0.0 | 0.00 | 0.00 | 0.00 | 83 | 1007.0 |
| 20260902065804 | 43 | 147 | 0.0 | 0.0 | 0.00 | 0.00 | 0.00 | 82 | 1007.0 |
| 20260902065306 | 44 | 147 | 0.0 | 0.0 | 0.00 | 0.00 | 0.00 | 82 | 1007.1 |
| 20260902064804 | 44 | 147 | 0.0 | 0.0 | 0.00 | 0.00 | 0.00 | 82 | 1007.0 |
| 20260902064304 | 44 | 147 | 0.0 | 0.0 | 0.00 | 0.00 | 0.00 | 82 | 1007.0 |
| 20260902063803 | 45 | 147 | 0.0 | 0.0 | 0.00 | 0.00 | 0.00 | 81 | 1007.0 |
| 20260902063304 | 45 | 147 | 0.0 | 0.0 | 0.00 | 0.00 | 0.00 | 81 | 1007.1 |
| 20260902062804 | 46 | 147 | 0.0 | 0.0 | 0.00 | 0.00 | 0.00 | 81 | 1007.1 |
| 20260902062306 | 46 | 147 | 0.0 | 0.0 | 0.00 | 0.00 | 0.00 | 80 | 1007.0 |
| 20260902051803 | 52 | 272 | 0.0 | 0.0 | 0.00 | 0.00 | 0.00 | 72 | 1006.6 |
| 20260902051304 | 52 | 272 | 0.0 | 0.0 | 0.00 | 0.00 | 0.00 | 71 | 1006.6 |
| 20260902050804 | 53 | 272 | 0.0 | 0.0 | 0.00 | 0.00 | 0.00 | 70 | 1006.7 |
| 20260902050304 | 53 | 272 | 0.0 | 0.0 | 0.00 | 0.00 | 0.00 | 69 | 1006.6 |
| 20260902045804 | 53 | 272 | 0.0 | 0.0 | 0.00 | 0.00 | 0.00 | 68 | 1006.5 |
| 20260902045306 | 54 | 272 | 0.0 | 0.0 | 0.00 | 0.00 | 0.00 | 68 | 1006.3 |
| 20260902044804 | 54 | 272 | 0.0 | 0.0 | 0.00 | 0.00 | 0.00 | 67 | 1006.3 |
| 20260902044304 | 54 | 272 | 0.0 | 0.0 | 0.00 | 0.00 | 0.00 | 67 | 1006.3 |
| 20260902043804 | 54 | 272 | 0.0 | 0.0 | 0.00 | 0.00 | 0.00 | 66 | 1006.3 |
| 20260902043304 | 55 | 272 | 0.0 | 0.0 | 0.00 | 0.00 | 0.00 | 66 | 1006.3 |
| 20260902042804 | 55 | 272 | 0.0 | 2.0 | 0.00 | 0.00 | 0.00 | 66 | 1006.3 |
| 20260902042308 | 55 | 295 | 0.0 | 0.0 | 0.00 | 0.00 | 0.00 | 65 | 1006.4 |
| 20260902041804 | 55 | 295 | 0.0 | 1.0 | 0.00 | 0.00 | 0.00 | 65 | 1006.5 |
| 20260902041304 | 56 | 285 | 1.0 | 2.0 | 0.00 | 0.00 | 0.00 | 65 | 1006.5 |
| 20260902040804 | 56 | 322 | 1.0 | 2.0 | 0.00 | 0.00 | 0.00 | 64 | 1006.5 |
| 20260902040304 | 56 | 246 | 0.0 | 0.0 | 0.00 | 0.00 | 0.00 | 64 | 1006.6 |
| 20260902035804 | 56 | 246 | 0.0 | 0.0 | 0.00 | 0.00 | 0.00 | 63 | 1006.6 |
| 20260902035305 | 56 | 246 | 2.0 | 5.0 | 0.00 | 0.00 | 0.00 | 62 | 1006.7 |
| 20260902034805 | 57 | 222 | 1.0 | 3.0 | 0.00 | 0.00 | 0.00 | 62 | 1006.7 |
| 20260902034305 | 57 | 230 | 2.0 | 3.0 | 0.00 | 0.00 | 0.00 | 62 | 1006.8 |
| 20260902033804 | 57 | 222 | 3.0 | 5.0 | 0.00 | 0.00 | 0.00 | 61 | 1006.8 |
| 20260902033304 | 57 | 212 | 3.0 | 5.0 | 0.00 | 0.00 | 0.00 | 61 | 1006.7 |
| 20260902032805 | 57 | 219 | 3.0 | 5.0 | 0.00 | 0.00 | 0.00 | 61 | 1006.6 |
| 20260902032306 | 57 | 212 | 2.0 | 5.0 | 0.00 | 0.00 | 0.00 | 61 | 1006.6 |
| 20260902031804 | 57 | 215 | 2.0 | 5.0 | 0.00 | 0.00 | 0.00 | 61 | 1006.5 |
| 20260902031305 | 57 | 231 | 1.0 | 3.0 | 0.00 | 0.00 | 0.00 | 61 | 1006.5 |
| 20260902030804 | 57 | 234 | 0.0 | 0.0 | 0.00 | 0.00 | 0.00 | 61 | 1006.5 |
| 20260902030304 | 57 | 181 | 0.0 | 1.0 | 0.00 | 0.00 | 0.00 | 61 | 1006.3 |
| 20260902025804 | 58 | 178 | 0.0 | 2.0 | 0.00 | 0.00 | 0.00 | 60 | 1006.3 |
| 20260902025306 | 58 | 221 | 0.0 | 2.0 | 0.00 | 0.00 | 0.00 | 61 | 1006.3 |
| 20260902024804 | 58 | 208 | 2.0 | 3.0 | 0.00 | 0.00 | 0.00 | 61 | 1006.3 |
| 20260902024304 | 58 | 255 | 1.0 | 2.0 | 0.00 | 0.00 | 0.00 | 61 | 1006.3 |
| 20260902023804 | 58 | 250 | 0.0 | 1.0 | 0.00 | 0.00 | 0.00 | 61 | 1006.5 |
| 20260902023305 | 58 | 270 | 0.0 | 1.0 | 0.00 | 0.00 | 0.00 | 61 | 1006.5 |
| 20260902022804 | 58 | 281 | 0.0 | 2.0 | 0.00 | 0.00 | 0.00 | 61 | 1006.5 |
| 20260902022306 | 57 | 274 | 1.0 | 3.0 | 0.00 | 0.00 | 0.00 | 61 | 1006.5 |
| 20260902021805 | 57 | 261 | 0.0 | 1.0 | 0.00 | 0.00 | 0.00 | 61 | 1006.6 |
| 20260902021304 | 57 | 296 | 1.0 | 3.0 | 0.00 | 0.00 | 0.00 | 61 | 1006.6 |
| 20260902020804 | 58 | 313 | 1.0 | 3.0 | 0.00 | 0.00 | 0.00 | 61 | 1006.6 |
| 20260902020304 | 58 | 301 | 2.0 | 6.0 | 0.00 | 0.00 | 0.00 | 61 | 1006.6 |
| 20260902015804 | 58 | 285 | 1.0 | 3.0 | 0.00 | 0.00 | 0.00 | 61 | 1006.6 |
| 20260902015306 | 57 | 237 | 2.0 | 5.0 | 0.00 | 0.00 | 0.00 | 61 | 1006.6 |
| 20260902014805 | 58 | 213 | 5.0 | 6.0 | 0.00 | 0.00 | 0.00 | 61 | 1006.7 |
| 20260902014304 | 58 | 235 | 3.0 | 7.0 | 0.00 | 0.00 | 0.00 | 61 | 1006.6 |
| 20260902013804 | 58 | 235 | 1.0 | 3.0 | 0.00 | 0.00 | 0.00 | 60 | 1006.6 |
| 20260902013304 | 57 | 239 | 2.0 | 3.0 | 0.00 | 0.00 | 0.00 | 60 | 1006.6 |
| 20260902012814 | 57 | 288 | 1.0 | 2.0 | 0.00 | 0.00 | 0.00 | 60 | 1006.6 |
| 20260902012309 | 57 | 259 | 1.0 | 5.0 | 0.00 | 0.00 | 0.00 | 60 | 1006.6 |
| 20260902011804 | 57 | 288 | 2.0 | 5.0 | 0.00 | 0.00 | 0.00 | 60 | 1006.6 |
| 20260902011304 | 57 | 248 | 1.0 | 5.0 | 0.00 | 0.00 | 0.00 | 60 | 1006.6 |
| 20260902010804 | 57 | 355 | 1.0 | 2.0 | 0.00 | 0.00 | 0.00 | 60 | 1006.6 |
| 20260902010304 | 57 | 257 | 1.0 | 6.0 | 0.00 | 0.00 | 0.00 | 60 | 1006.6 |
| 20260902005804 | 57 | 334 | 5.0 | 9.0 | 0.00 | 0.00 | 0.00 | 60 | 1006.7 |
| 20260902005306 | 57 | 322 | 2.0 | 5.0 | 0.00 | 0.00 | 0.00 | 60 | 1006.7 |
| 20260902004804 | 57 | 327 | 1.0 | 5.0 | 0.00 | 0.00 | 0.00 | 60 | 1006.7 |
| 20260902004304 | 56 | 253 | 0.0 | 1.0 | 0.00 | 0.00 | 0.00 | 60 | 1006.7 |
| 20260902003804 | 56 | 201 | 1.0 | 5.0 | 0.00 | 0.00 | 0.00 | 59 | 1006.7 |
| 20260902003304 | 56 | 64 | 1.0 | 2.0 | 0.00 | 0.00 | 0.00 | 59 | 1006.8 |
| 20260902002805 | 56 | 79 | 0.0 | 5.0 | 0.00 | 0.00 | 0.00 | 60 | 1006.8 |
| 20260902002306 | 56 | 35 | 4.0 | 6.0 | 0.00 | 0.00 | 0.00 | 59 | 1006.8 |
| 20260902001805 | 56 | 345 | 2.0 | 5.0 | 0.00 | 0.00 | 0.00 | 61 | 1006.8 |
| 20260902001304 | 56 | 326 | 1.0 | 5.0 | 0.00 | 0.00 | 0.00 | 62 | 1006.8 |
| 20260902000804 | 55 | 327 | 4.0 | 7.0 | 0.00 | 0.00 | 0.00 | 62 | 1006.8 |
| 20260902000304 | 55 | 309 | 2.0 | 6.0 | 0.00 | 0.00 | 0.00 | 61 | 1006.8 |
| 20260901235804 | 55 | 308 | 3.0 | 6.0 | 0.00 | 0.00 | 0.00 | 61 | 1006.8 |
| 20260901235307 | 55 | 155 | 2.0 | 5.0 | 0.00 | 0.00 | 0.00 | 61 | 1006.9 |
| 20260901234804 | 55 | 277 | 1.0 | 5.0 | 0.00 | 0.00 | 0.00 | 61 | 1006.9 |
| 20260901234304 | 55 | 304 | 2.0 | 6.0 | 0.00 | 0.00 | 0.00 | 62 | 1006.8 |
| 20260901233804 | 55 | 293 | 1.0 | 2.0 | 0.00 | 0.00 | 0.00 | 62 | 1006.8 |
| 20260901233304 | 55 | 280 | 1.0 | 7.0 | 0.00 | 0.00 | 0.00 | 62 | 1006.9 |
| 20260901232803 | 54 | 342 | 1.0 | 6.0 | 0.00 | 0.00 | 0.00 | 62 | 1006.9 |
| 20260901232306 | 54 | 9 | 3.0 | 8.0 | 0.00 | 0.00 | 0.00 | 62 | 1006.9 |
| 20260901231804 | 54 | 314 | 4.0 | 6.0 | 0.00 | 0.00 | 0.00 | 62 | 1006.9 |
| 20260901231304 | 54 | 342 | 2.0 | 6.0 | 0.00 | 0.00 | 0.00 | 62 | 1006.9 |
| 20260901230804 | 54 | 176 | 2.0 | 3.0 | 0.00 | 0.00 | 0.00 | 62 | 1006.9 |
| 20260901230304 | 54 | 301 | 1.0 | 3.0 | 0.00 | 0.00 | 0.00 | 62 | 1007.0 |
| 20260901225804 | 54 | 304 | 0.0 | 3.0 | 0.00 | 0.00 | 0.00 | 61 | 1007.0 |
| 20260901225306 | 54 | 320 | 3.0 | 7.0 | 0.00 | 0.00 | 0.00 | 61 | 1007.1 |
| 20260901224804 | 54 | 23 | 3.0 | 6.0 | 0.00 | 0.00 | 0.00 | 62 | 1007.1 |
| 20260901224304 | 53 | 9 | 3.0 | 7.0 | 0.00 | 0.00 | 0.00 | 62 | 1007.1 |
| 20260901223804 | 53 | 355 | 2.0 | 6.0 | 0.00 | 0.00 | 0.00 | 64 | 1007.2 |
| 20260901223304 | 53 | 327 | 2.0 | 7.0 | 0.00 | 0.00 | 0.00 | 65 | 1007.3 |
| 20260901222804 | 53 | 297 | 2.0 | 6.0 | 0.00 | 0.00 | 0.00 | 65 | 1007.4 |
| 20260901222306 | 52 | 201 | 1.0 | 2.0 | 0.00 | 0.00 | 0.00 | 65 | 1007.3 |
| 20260901221804 | 52 | 353 | 1.0 | 3.0 | 0.00 | 0.00 | 0.00 | 65 | 1007.3 |
| 20260901221304 | 52 | 227 | 0.0 | 5.0 | 0.00 | 0.00 | 0.00 | 66 | 1007.3 |
| 20260901220804 | 52 | 347 | 1.0 | 5.0 | 0.00 | 0.00 | 0.00 | 66 | 1007.4 |
| 20260901220304 | 52 | 275 | 0.0 | 5.0 | 0.00 | 0.00 | 0.00 | 66 | 1007.5 |
| 20260901215306 | 52 | 224 | 1.0 | 3.0 | 0.00 | 0.00 | 0.00 | 67 | 1007.5 |
| 20260901214804 | 52 | 239 | 1.0 | 3.0 | 0.00 | 0.00 | 0.00 | 67 | 1007.6 |
| 20260901214304 | 51 | 190 | 2.0 | 3.0 | 0.00 | 0.00 | 0.00 | 67 | 1007.6 |
| 20260901213804 | 51 | 343 | 2.0 | 5.0 | 0.00 | 0.00 | 0.00 | 67 | 1007.7 |
| 20260901213304 | 51 | 281 | 1.0 | 5.0 | 0.00 | 0.00 | 0.00 | 67 | 1007.7 |
| 20260901212804 | 51 | 208 | 1.0 | 3.0 | 0.00 | 0.00 | 0.00 | 68 | 1007.7 |
| 20260901212306 | 51 | 289 | 1.0 | 5.0 | 0.00 | 0.00 | 0.00 | 68 | 1007.8 |
| 20260901211804 | 51 | 14 | 1.0 | 3.0 | 0.00 | 0.00 | 0.00 | 68 | 1007.7 |
| 20260901211304 | 51 | 1 | 2.0 | 5.0 | 0.00 | 0.00 | 0.00 | 68 | 1007.7 |
| 20260901210804 | 51 | 333 | 1.0 | 3.0 | 0.00 | 0.00 | 0.00 | 68 | 1007.7 |
| 20260901210304 | 51 | 281 | 1.0 | 2.0 | 0.00 | 0.00 | 0.00 | 69 | 1007.7 |
| 20260901205804 | 51 | 338 | 2.0 | 7.0 | 0.00 | 0.00 | 0.00 | 69 | 1007.7 |
| 20260901205306 | 50 | 307 | 1.0 | 7.0 | 0.00 | 0.00 | 0.00 | 69 | 1007.8 |
| 20260901204804 | 50 | 12 | 3.0 | 6.0 | 0.00 | 0.00 | 0.00 | 69 | 1007.7 |
| 20260901204304 | 50 | 10 | 0.0 | 2.0 | 0.00 | 0.00 | 0.00 | 69 | 1007.7 |
| 20260901203804 | 50 | 312 | 1.0 | 3.0 | 0.00 | 0.01 | 0.00 | 70 | 1007.7 |
| 20260901203304 | 50 | 245 | 2.0 | 5.0 | 0.00 | 0.01 | 0.00 | 70 | 1007.7 |
| 20260901202804 | 50 | 281 | 1.0 | 3.0 | 0.00 | 0.01 | 0.00 | 70 | 1007.7 |
| 20260901202306 | 50 | 292 | 2.0 | 3.0 | 0.00 | 0.01 | 0.00 | 70 | 1007.8 |
| 20260901201804 | 50 | 149 | 2.0 | 3.0 | 0.00 | 0.01 | 0.00 | 71 | 1007.8 |
| 20260901201304 | 50 | 278 | 1.0 | 2.0 | 0.00 | 0.01 | 0.00 | 72 | 1007.9 |
| 20260901200803 | 49 | 255 | 2.0 | 5.0 | 0.00 | 0.02 | 0.00 | 72 | 1007.9 |
| 20260901200304 | 49 | 172 | 1.0 | 3.0 | 0.00 | 0.02 | 0.00 | 72 | 1007.9 |
| 20260901195803 | 49 | 206 | 1.0 | 3.0 | 0.00 | 0.02 | 0.00 | 73 | 1007.9 |
| 20260901195306 | 49 | 176 | 3.0 | 6.0 | 0.00 | 0.02 | 0.00 | 74 | 1007.8 |
| 20260901194803 | 48 | 251 | 0.0 | 5.0 | 0.00 | 0.02 | 0.00 | 75 | 1007.9 |
| 20260901194305 | 48 | 241 | 2.0 | 6.0 | 0.00 | 0.02 | 0.00 | 75 | 1007.9 |
| 20260901193804 | 48 | 253 | 1.0 | 2.0 | 0.00 | 0.02 | 0.00 | 76 | 1007.9 |
| 20260901193304 | 48 | 282 | 1.0 | 5.0 | 0.00 | 0.02 | 0.00 | 76 | 1007.9 |
| 20260901192804 | 48 | 282 | 2.0 | 3.0 | 0.00 | 0.03 | 0.00 | 77 | 1007.9 |
| 20260901192306 | 48 | 278 | 0.0 | 2.0 | 0.00 | 0.03 | 0.00 | 78 | 1007.9 |
| 20260901191804 | 48 | 284 | 0.0 | 3.0 | 0.00 | 0.03 | 0.00 | 79 | 1007.9 |
| 20260901191304 | 47 | 338 | 1.0 | 6.0 | 0.00 | 0.03 | 0.00 | 80 | 1007.9 |
| 20260901190804 | 47 | 210 | 3.0 | 5.0 | 0.00 | 0.03 | 0.00 | 80 | 1007.8 |
| 20260901190304 | 47 | 205 | 0.0 | 3.0 | 0.00 | 0.03 | 0.00 | 81 | 1007.8 |
| 20260901185804 | 47 | 176 | 2.0 | 5.0 | 0.00 | 0.03 | 0.00 | 81 | 1007.8 |
| 20260901185306 | 46 | 337 | 1.0 | 2.0 | 0.00 | 0.03 | 0.00 | 82 | 1007.9 |
| 20260901184804 | 46 | 192 | 0.0 | 1.0 | 0.00 | 0.03 | 0.00 | 83 | 1007.8 |
| 20260901184304 | 46 | 203 | 0.0 | 2.0 | 0.00 | 0.03 | 0.00 | 84 | 1007.7 |
| 20260901183805 | 45 | 133 | 1.0 | 5.0 | 0.00 | 0.03 | 0.00 | 84 | 1007.8 |
| 20260901183304 | 45 | 176 | 0.0 | 3.0 | 0.00 | 0.03 | 0.00 | 85 | 1007.9 |
| 20260901182805 | 45 | 263 | 0.0 | 1.0 | 0.00 | 0.03 | 0.00 | 86 | 1008.0 |
| 20260901182305 | 44 | 263 | 0.0 | 0.0 | 0.00 | 0.03 | 0.00 | 87 | 1008.0 |
| 20260901181804 | 44 | 263 | 0.0 | 1.0 | 0.00 | 0.03 | 0.00 | 88 | 1007.9 |
| 20260901181304 | 44 | 215 | 1.0 | 3.0 | 0.00 | 0.03 | 0.00 | 88 | 1008.0 |
| 20260901180805 | 43 | 353 | 1.0 | 2.0 | 0.00 | 0.03 | 0.00 | 89 | 1007.9 |
| 20260901180304 | 43 | 2 | 2.0 | 3.0 | 0.00 | 0.03 | 0.00 | 90 | 1007.9 |
| 20260901175804 | 42 | 19 | 1.0 | 3.0 | 0.00 | 0.03 | 0.00 | 92 | 1008.0 |
| 20260901175305 | 42 | 164 | 0.0 | 0.0 | 0.00 | 0.03 | 0.00 | 93 | 1008.0 |
| 20260901174804 | 41 | 164 | 0.0 | 0.0 | 0.00 | 0.03 | 0.00 | 94 | 1008.1 |
| 20260901174305 | 41 | 164 | 0.0 | 2.0 | 0.00 | 0.03 | 0.00 | 94 | 1008.1 |
| 20260901173804 | 40 | 202 | 2.0 | 3.0 | 0.00 | 0.03 | 0.00 | 94 | 1008.1 |
| 20260901173304 | 40 | 161 | 2.0 | 2.0 | 0.00 | 0.03 | 0.00 | 94 | 1008.1 |
| 20260901172804 | 39 | 174 | 0.0 | 0.0 | 0.00 | 0.03 | 0.00 | 94 | 1008.1 |
| 20260901172305 | 38 | 174 | 0.0 | 0.0 | 0.00 | 0.03 | 0.00 | 94 | 1008.1 |
| 20260901171804 | 37 | 174 | 0.0 | 0.0 | 0.00 | 0.03 | 0.00 | 94 | 1008.2 |
| 20260901171305 | 37 | 174 | 0.0 | 0.0 | 0.00 | 0.03 | 0.00 | 94 | 1008.2 |
| 20260901170804 | 36 | 174 | 0.0 | 0.0 | 0.00 | 0.03 | 0.00 | 94 | 1008.3 |
| 20260901170304 | 35 | 174 | 0.0 | 0.0 | 0.00 | 0.03 | 0.00 | 94 | 1008.3 |
| 20260901165804 | 35 | 174 | 0.0 | 0.0 | 0.00 | 0.03 | 0.00 | 94 | 1008.3 |
| 20260901165306 | 35 | 174 | 0.0 | 0.0 | 0.00 | 0.03 | 0.00 | 94 | 1008.2 |
| 20260901164804 | 34 | 174 | 0.0 | 0.0 | 0.00 | 0.03 | 0.00 | 94 | 1008.2 |
| 20260901164304 | 34 | 185 | 1.0 | 2.0 | 0.00 | 0.03 | 0.00 | 94 | 1008.3 |
| 20260901163804 | 34 | 182 | 2.0 | 2.0 | 0.00 | 0.03 | 0.00 | 94 | 1008.3 |
| 20260901163304 | 34 | 144 | 0.0 | 2.0 | 0.00 | 0.03 | 0.00 | 94 | 1008.2 |
| 20260901162804 | 34 | 137 | 0.0 | 0.0 | 0.00 | 0.03 | 0.00 | 94 | 1008.3 |
| 20260901162306 | 33 | 137 | 0.0 | 1.0 | 0.00 | 0.03 | 0.00 | 94 | 1008.3 |
| 20260901161804 | 33 | 165 | 0.0 | 0.0 | 0.00 | 0.03 | 0.00 | 94 | 1008.2 |
| 20260901161303 | 33 | 165 | 0.0 | 0.0 | 0.00 | 0.03 | 0.00 | 94 | 1008.1 |
| 20260901160804 | 32 | 165 | 0.0 | 0.0 | 0.00 | 0.03 | 0.00 | 94 | 1008.1 |
| 20260901160304 | 32 | 165 | 0.0 | 0.0 | 0.00 | 0.03 | 0.00 | 94 | 1008.1 |
| 20260901155804 | 32 | 165 | 0.0 | 0.0 | 0.00 | 0.03 | 0.00 | 94 | 1008.1 |
| 20260901155306 | 32 | 165 | 0.0 | 0.0 | 0.00 | 0.03 | 0.00 | 94 | 1008.1 |
| 20260901154804 | 32 | 165 | 0.0 | 0.0 | 0.00 | 0.03 | 0.00 | 93 | 1008.0 |
| 20260901154304 | 32 | 165 | 0.0 | 0.0 | 0.00 | 0.03 | 0.00 | 93 | 1008.1 |
| 20260901153804 | 32 | 165 | 0.0 | 0.0 | 0.00 | 0.03 | 0.00 | 94 | 1008.1 |
| 20260901153304 | 32 | 165 | 0.0 | 0.0 | 0.00 | 0.04 | 0.00 | 93 | 1008.0 |
| 20260901152804 | 32 | 165 | 0.0 | 0.0 | 0.00 | 0.04 | 0.00 | 93 | 1008.0 |
| 20260901152306 | 32 | 165 | 0.0 | 0.0 | 0.00 | 0.05 | 0.00 | 93 | 1008.0 |
| 20260901151804 | 32 | 165 | 0.0 | 0.0 | 0.00 | 0.06 | 0.00 | 93 | 1007.9 |
| 20260901151304 | 32 | 165 | 0.0 | 0.0 | 0.00 | 0.08 | 0.00 | 93 | 1007.8 |
| 20260901150805 | 32 | 165 | 0.0 | 0.0 | 0.00 | 0.10 | 0.00 | 93 | 1007.8 |
| 20260901150304 | 32 | 165 | 0.0 | 0.0 | 0.00 | 0.12 | 0.00 | 93 | 1007.7 |
| 20260901145804 | 32 | 165 | 0.0 | 0.0 | 0.00 | 0.14 | 0.00 | 93 | 1007.7 |
| 20260901145306 | 32 | 165 | 0.0 | 0.0 | 0.00 | 0.15 | 0.00 | 93 | 1007.7 |
| 20260901144804 | 32 | 165 | 0.0 | 0.0 | 0.00 | 0.16 | 0.00 | 93 | 1007.7 |
| 20260901144304 | 32 | 165 | 0.0 | 0.0 | 0.00 | 0.18 | 0.00 | 93 | 1007.8 |
| 20260901143803 | 32 | 165 | 0.0 | 0.0 | 0.00 | 0.19 | 0.00 | 93 | 1007.8 |
| 20260901143304 | 32 | 165 | 0.0 | 0.0 | 0.00 | 0.21 | 0.00 | 93 | 1007.8 |
| 20260901142804 | 32 | 165 | 0.0 | 0.0 | 0.00 | 0.23 | 0.00 | 92 | 1007.8 |
| 20260901142305 | 33 | 165 | 0.0 | 0.0 | 0.00 | 0.25 | 0.00 | 92 | 1007.7 |
| 20260901141804 | 33 | 165 | 0.0 | 0.0 | 0.00 | 0.27 | 0.00 | 92 | 1007.7 |
| 20260901141304 | 33 | 165 | 0.0 | 0.0 | 0.00 | 0.29 | 0.00 | 92 | 1007.6 |
| 20260901140804 | 33 | 165 | 1.0 | 2.0 | 0.00 | 0.30 | 0.00 | 92 | 1007.6 |
| 20260901140305 | 33 | 178 | 1.0 | 2.0 | 0.00 | 0.31 | 0.00 | 92 | 1007.6 |